TimeCST,TemperatureF,Dew PointF,Humidity,Sea Level PressureIn,VisibilityMPH,Wind Direction,Wind SpeedMPH,Gust SpeedMPH,PrecipitationIn,Events,Conditions,WindDirDegrees,DateUTC
12:53 AM,55.0,55.0,100,30.14,6.0,NE,5.8,-,N/A,,Clear,50,2011-11-25 06:53:00
1:53 AM,53.6,53.6,100,30.14,7.0,ENE,8.1,-,N/A,,Clear,60,2011-11-25 07:53:00
2:53 AM,55.9,55.9,100,30.11,9.0,ENE,8.1,-,N/A,,Clear,70,2011-11-25 08:53:00
3:53 AM,59.0,59.0,100,30.09,10.0,East,6.9,-,N/A,,Partly Cloudy,90,2011-11-25 09:53:00
4:53 AM,57.0,57.0,100,30.08,9.0,ENE,6.9,-,N/A,,Partly Cloudy,60,2011-11-25 10:53:00
5:53 AM,55.9,55.0,97,30.08,10.0,ENE,4.6,-,N/A,,Scattered Clouds,70,2011-11-25 11:53:00
6:53 AM,63.0,61.0,93,30.09,10.0,ESE,9.2,-,N/A,,Mostly Cloudy,110,2011-11-25 12:53:00
7:53 AM,66.0,62.1,87,30.09,10.0,ESE,9.2,-,N/A,,Mostly Cloudy,110,2011-11-25 13:53:00
8:53 AM,71.1,64.0,78,30.09,10.0,ESE,15.0,-,N/A,,Clear,120,2011-11-25 14:53:00
9:53 AM,75.0,61.0,62,30.08,10.0,ESE,18.4,-,N/A,,Clear,120,2011-11-25 15:53:00
10:53 AM,78.1,61.0,56,30.06,10.0,ESE,17.3,-,N/A,,Clear,120,2011-11-25 16:53:00
11:53 AM,79.0,59.0,50,30.04,10.0,SE,19.6,25.3,N/A,,Clear,140,2011-11-25 17:53:00
12:53 PM,78.1,57.9,50,30.00,10.0,SE,17.3,23.0,N/A,,Overcast,140,2011-11-25 18:53:00
1:53 PM,79.0,60.1,52,29.97,10.0,SE,18.4,-,N/A,,Clear,130,2011-11-25 19:53:00
2:53 PM,78.8,60.8,54,29.95,10.0,SE,17.3,21.9,N/A,,Mostly Cloudy,140,2011-11-25 20:53:00
3:53 PM,75.9,63.0,64,29.93,10.0,ESE,19.6,25.3,N/A,,Clear,120,2011-11-25 21:53:00
4:53 PM,73.0,63.0,71,29.93,10.0,ESE,16.1,23.0,N/A,,Clear,120,2011-11-25 22:53:00
5:53 PM,71.1,64.9,81,29.91,10.0,ESE,13.8,-,N/A,,Partly Cloudy,120,2011-11-25 23:53:00
6:53 PM,70.0,66.0,87,29.92,10.0,ESE,11.5,-,N/A,,Clear,120,2011-11-26 00:53:00
7:53 PM,70.0,66.0,87,29.91,10.0,SE,12.7,-,N/A,,Clear,130,2011-11-26 01:53:00
8:53 PM,70.0,66.9,90,29.92,10.0,SE,10.4,-,N/A,,Scattered Clouds,130,2011-11-26 02:53:00
9:53 PM,69.1,66.9,93,29.91,10.0,SE,9.2,-,N/A,,Clear,130,2011-11-26 03:53:00
10:53 PM,69.1,66.9,93,29.92,10.0,ESE,5.8,-,N/A,,Mostly Cloudy,120,2011-11-26 04:53:00